Location: Appleton
(44.2618°N, 88.4157°W)
Time: 10:31:39
(UTC+00:00)

Transit 2A - Visible Passes

Search period start: 01 March 2021 00:00
Search period end: 11 March 2021 00:00
Orbit: 601 x 958 km, 66.7° (Epoch: 28 February)

Date Brightness Start Highest point End Pass type
(mag) Time Alt. Az. Time Alt. Az. Time Alt. Az.
01 Mar 6.1 00:41:12 10° SSW 00:46:31 54° ESE 00:51:21 10° NE visible
01 Mar 7.9 02:25:34 10° WSW 02:29:55 26° NW 02:33:07 14° N visible
02 Mar 6.6 00:07:27 10° S 00:12:26 37° ESE 00:16:59 10° NE visible
02 Mar 7.4 01:50:46 10° WSW 01:55:35 35° NW 02:00:02 10° NNE visible
03 Mar 6.9 01:16:09 10° SW 01:21:19 48° NW 01:26:02 10° NNE visible
03 Mar 8.8 03:04:40 10° NW 03:05:34 10° NNW 03:06:28 10° NNW visible
04 Mar 6.3 00:41:44 10° SW 00:47:06 69° WNW 00:51:57 10° NNE visible
04 Mar 8.6 02:28:31 10° WNW 02:31:03 14° NW 02:33:30 10° N visible
05 Mar 5.9 00:07:31 10° SSW 00:12:55 83° ESE 00:17:49 10° NNE visible
05 Mar 8.4 01:53:07 10° W 01:56:36 18° NW 01:59:53 10° N visible
06 Mar 8.1 01:18:03 10° W 01:22:12 24° NW 01:26:05 10° N visible
07 Mar 7.6 00:43:12 10° WSW 00:47:52 32° NW 00:52:11 10° NNE visible
08 Mar 7.1 00:08:33 10° SW 00:13:36 45° NW 00:18:12 10° NNE visible
09 Mar 8.5 01:21:11 10° WNW 01:23:22 13° NW 01:25:30 10° N visible
10 Mar 8.3 00:45:40 10° W 00:48:53 17° NW 00:51:58 10° N visible
